Cadillac, MI

7:51 PM EST on November 21, 2019 (GMT -0500)
Wexford County

Weather History for KCAD - October, 2019

Change the Weather History Date:

Tuesday, October 22, 2019

  Actual Average Record
Temperature  
Mean Temperature 48 °F -  
Max Temperature 54 °F 52 °F 77 °F (1953)
Min Temperature 42 °F 34 °F 17 °F (2008)
Degree Days  
Heating Degree Days 17    
Moisture  
Dew Point 42 °F    
Average Humidity 86    
Maximum Humidity 92    
Minimum Humidity 75    
Precipitation  
Precipitation 0.00 in - - ()
Sea Level Pressure  
Sea Level Pressure 29.47 in    
Wind  
Wind Speed 13 mph (SSW)    
Max Wind Speed 20 mph    
Max Gust Speed 36 mph    
Visibility 9 miles    
Events Rain    
Averages and records for this station are not official NWS values.
T = Trace of Precipitation, MM = Missing Value Source: NWS Daily Summary

Daily Weather History Graph

Daily Weather History Graph

Search for Another Location

Airport or City:

Astronomy

Oct. 22, 2019 Rise Set
Actual Time 8:05 AM EDT 6:46 PM EDT
Civil Twilight 7:35 AM EDT 7:15 PM EDT
Nautical Twilight 7:01 AM EDT 7:49 PM EDT
Astronomical Twilight 6:28 AM EDT 8:23 PM EDT
Moon 12:55 AM EDT 4:12 PM EDT
Length of Visible Light 11h 40m
Length of Day
10h 41m
Last Quarter, 37% of the Moon is Illuminated
Oct 22
Last Quarter
Oct 27
New
Nov 4
First Quarter
Nov 12
Full
Nov 19
Last Quarter

Hourly Weather History & Observations

Time (EDT) Temp. Windchill Dew Point Humidity Pressure Visibility Wind Dir Wind Speed Gust Speed Precip Events Conditions
12:17 AM 54.1 °F - 46.4 °F 75% 29.51 in 10.0 mi SSW 9.2 mph 18.4 mph N/A   Clear
12:35 AM 53.2 °F - 46.6 °F 78% 29.51 in 10.0 mi SW 9.2 mph - N/A   Mostly Cloudy
12:55 AM 53.2 °F - 46.6 °F 78% 29.51 in 10.0 mi SW 11.5 mph 17.3 mph N/A   Overcast
12:56 AM 53.1 °F - 46.6 °F 79% 29.51 in 10.0 mi SW 12.7 mph 17.3 mph N/A   Overcast
1:15 AM 51.8 °F - 44.6 °F 76% 29.50 in 10.0 mi SSW 12.7 mph 19.6 mph N/A   Scattered Clouds
1:38 AM 50.7 °F - 43.2 °F 75% 29.50 in 10.0 mi South 9.2 mph 16.1 mph N/A   Clear
2:15 AM 49.1 °F - 42.3 °F 77% 29.49 in 10.0 mi South 6.9 mph - N/A   Clear
2:35 AM 48.4 °F - 42.8 °F 81% 29.49 in 10.0 mi South 8.1 mph - N/A   Clear
2:59 AM 48.2 °F - 42.4 °F 80% 29.49 in 10.0 mi South 10.4 mph 17.3 mph N/A   Clear
3:17 AM 47.8 °F - 42.1 °F 80% 29.49 in 10.0 mi South 9.2 mph - N/A   Clear
3:35 AM 48.0 °F - 41.7 °F 79% 29.49 in 10.0 mi South 11.5 mph 17.3 mph N/A   Clear
3:55 AM 47.7 °F - 41.9 °F 80% 29.48 in 10.0 mi South 8.1 mph - N/A   Clear
4:15 AM 47.7 °F - 41.9 °F 80% 29.47 in 10.0 mi South 10.4 mph 17.3 mph N/A   Clear
4:38 AM 47.5 °F - 41.9 °F 81% 29.46 in 10.0 mi South 10.4 mph 16.1 mph N/A   Clear
4:56 AM 47.5 °F - 41.9 °F 81% 29.45 in 10.0 mi South 10.4 mph - N/A   Scattered Clouds
5:15 AM 47.5 °F - 42.3 °F 82% 29.45 in 10.0 mi South 9.2 mph 17.3 mph N/A   Scattered Clouds
5:35 AM 47.7 °F - 42.3 °F 82% 29.44 in 10.0 mi South 12.7 mph 17.3 mph N/A   Mostly Cloudy
5:59 AM 47.8 °F - 42.3 °F 81% 29.43 in 10.0 mi SSE 12.7 mph 18.4 mph N/A   Mostly Cloudy
6:35 AM 47.8 °F - 41.9 °F 80% 29.42 in 10.0 mi SSE 11.5 mph 23.0 mph N/A   Overcast
6:36 AM 47.8 °F - 41.9 °F 80% 29.42 in 10.0 mi South 11.5 mph 23.0 mph N/A   Overcast
6:55 AM 47.5 °F - 41.5 °F 80% 29.41 in 10.0 mi South 13.8 mph 17.3 mph N/A   Overcast
6:56 AM 47.5 °F - 41.5 °F 80% 29.41 in 10.0 mi South 15.0 mph 19.6 mph N/A   Overcast
7:15 AM 47.8 °F - 41.5 °F 79% 29.40 in 10.0 mi SSE 15.0 mph 20.7 mph N/A   Overcast
7:20 AM 47.8 °F - 41.5 °F 79% 29.40 in 10.0 mi South 17.3 mph 23.0 mph N/A   Overcast
7:38 AM 48.0 °F - 41.4 °F 78% 29.39 in 10.0 mi South 15.0 mph 25.3 mph N/A   Overcast
8:15 AM 47.7 °F - 41.9 °F 80% 29.39 in 10.0 mi South 16.1 mph 23.0 mph N/A   Overcast
8:35 AM 47.8 °F - 41.9 °F 80% 29.38 in 10.0 mi South 19.6 mph 28.8 mph N/A   Overcast
8:36 AM 47.8 °F - 41.7 °F 79% 29.38 in 10.0 mi South 16.1 mph 28.8 mph N/A   Overcast
8:59 AM 47.7 °F - 42.3 °F 82% 29.38 in 10.0 mi South 18.4 mph 25.3 mph N/A   Light Drizzle
9:17 AM 48.2 °F - 42.8 °F 82% 29.38 in 10.0 mi South 17.3 mph 23.0 mph N/A Rain Light Rain
9:35 AM 47.7 °F - 43.7 °F 86% 29.39 in 10.0 mi South 19.6 mph 26.5 mph N/A Rain Rain
9:36 AM 47.7 °F - 43.7 °F 86% 29.39 in 10.0 mi South 19.6 mph 26.5 mph N/A Rain Rain
9:55 AM 48.2 °F - 42.6 °F 81% 29.39 in 10.0 mi South 18.4 mph 26.5 mph N/A   Overcast
9:56 AM 48.2 °F - 42.6 °F 81% 29.39 in 10.0 mi South 18.4 mph 26.5 mph N/A Rain Light Rain
10:15 AM 47.5 °F - 44.1 °F 88% 29.39 in 10.0 mi South 16.1 mph 23.0 mph N/A   Overcast
10:38 AM 48.4 °F - 43.9 °F 84% 29.38 in 10.0 mi South 13.8 mph 21.9 mph N/A   Overcast
10:56 AM 49.5 °F - 43.3 °F 79% 29.38 in 10.0 mi SSW 15.0 mph 26.5 mph N/A   Overcast
11:15 AM 48.2 °F - 43.2 °F 83% 29.38 in 10.0 mi SSW 18.4 mph 27.6 mph N/A   Light Drizzle
11:35 AM 48.4 °F - 41.9 °F 78% 29.39 in 10.0 mi SSW 19.6 mph 35.7 mph N/A Rain Light Rain
11:36 AM 48.4 °F - 41.9 °F 78% 29.39 in 10.0 mi SSW 18.4 mph 35.7 mph N/A Rain Light Rain
11:59 AM 47.3 °F - 44.6 °F 90% 29.39 in 7.0 mi South 17.3 mph 26.5 mph N/A Rain Light Rain
12:17 PM 47.3 °F - 44.6 °F 90% 29.39 in 7.0 mi SSW 17.3 mph 25.3 mph N/A   Drizzle
12:35 PM 46.9 °F - 44.4 °F 91% 29.40 in 7.0 mi SSW 12.7 mph 21.9 mph N/A Rain Light Rain
12:55 PM 46.6 °F - 44.1 °F 91% 29.41 in 4.0 mi SSW 18.4 mph 27.6 mph N/A Rain Light Rain
1:15 PM 46.4 °F 39.5 °F 43.9 °F 91% 29.40 in 5.0 mi SSW 17.3 mph 26.5 mph N/A   Overcast
1:20 PM 46.4 °F 40.1 °F 43.9 °F 91% 29.41 in 5.0 mi SSW 15.0 mph 26.5 mph N/A   Overcast
1:38 PM 46.4 °F 39.5 °F 43.7 °F 90% 29.41 in 3.0 mi SSW 17.3 mph 24.2 mph N/A Rain Light Rain
1:56 PM 46.4 °F 41.1 °F 43.7 °F 90% 29.41 in 3.0 mi SSW 11.5 mph 19.6 mph N/A Rain Rain
2:15 PM 46.9 °F - 44.4 °F 91% 29.41 in 10.0 mi SSW 17.3 mph 24.2 mph N/A   Overcast
2:35 PM 46.4 °F 39.2 °F 43.9 °F 91% 29.42 in 4.0 mi SSW 18.4 mph 26.5 mph N/A   Overcast
3:17 PM 46.4 °F 40.1 °F 43.9 °F 91% 29.43 in 7.0 mi SSW 15.0 mph 21.9 mph N/A   Overcast
3:35 PM 46.0 °F 39.0 °F 43.7 °F 92% 29.44 in 5.0 mi SW 17.3 mph 26.5 mph N/A   Overcast
3:36 PM 46.0 °F 38.8 °F 43.7 °F 92% 29.44 in 5.0 mi SSW 18.4 mph 26.5 mph N/A   Overcast
3:55 PM 45.9 °F 39.1 °F 43.3 °F 91% 29.45 in 5.0 mi SW 16.1 mph 27.6 mph N/A Rain Light Rain
3:56 PM 45.9 °F 39.1 °F 43.3 °F 91% 29.45 in 5.0 mi SSW 16.1 mph 27.6 mph N/A Rain Light Rain
4:15 PM 45.7 °F 39.1 °F 43.2 °F 91% 29.46 in 5.0 mi SW 15.0 mph 24.2 mph N/A Rain Rain
4:20 PM 45.5 °F 38.9 °F 43.0 °F 91% 29.46 in 7.0 mi SW 15.0 mph - N/A Rain Rain
4:38 PM 45.5 °F 38.3 °F 42.8 °F 90% 29.47 in 5.0 mi SW 17.3 mph 24.2 mph N/A Rain Rain
4:56 PM 45.5 °F 38.6 °F 43.0 °F 91% 29.47 in 10.0 mi SW 16.1 mph 27.6 mph N/A   Overcast
5:15 PM 45.3 °F 38.7 °F 42.8 °F 91% 29.48 in 7.0 mi SW 15.0 mph 21.9 mph N/A Rain Light Rain
5:35 PM 45.5 °F 38.9 °F 42.8 °F 90% 29.49 in 10.0 mi SW 15.0 mph 20.7 mph N/A Rain Light Rain
5:59 PM 44.6 °F 37.4 °F 41.9 °F 90% 29.49 in 10.0 mi SW 16.1 mph 24.2 mph N/A Rain Light Rain
6:17 PM 44.8 °F 37.7 °F 42.3 °F 91% 29.50 in 10.0 mi SW 16.1 mph 20.7 mph N/A   Overcast
6:35 PM 44.6 °F 37.4 °F 42.1 °F 91% 29.51 in 7.0 mi SW 16.1 mph 24.2 mph N/A Rain Light Rain
6:55 PM 44.6 °F 37.2 °F 42.1 °F 91% 29.51 in 10.0 mi SW 17.3 mph 23.0 mph N/A Rain Light Rain
6:56 PM 44.6 °F 36.9 °F 42.1 °F 91% 29.51 in 10.0 mi SW 18.4 mph 23.0 mph N/A Rain Light Rain
7:15 PM 44.2 °F 37.6 °F 41.9 °F 91% 29.52 in 5.0 mi SW 13.8 mph 20.7 mph N/A Rain Rain
7:20 PM 44.2 °F 36.7 °F 41.7 °F 91% 29.52 in 7.0 mi SW 17.3 mph 21.9 mph N/A   Light Drizzle
7:38 PM 44.2 °F 37.0 °F 41.9 °F 91% 29.53 in 7.0 mi SW 16.1 mph 21.9 mph N/A Rain Rain
7:56 PM 43.5 °F 36.4 °F 41.0 °F 91% 29.54 in 7.0 mi WSW 15.0 mph 26.5 mph N/A Rain Rain
8:15 PM 43.2 °F 37.4 °F 40.6 °F 91% 29.55 in 7.0 mi SW 10.4 mph - N/A Rain Rain
8:35 PM 43.7 °F 36.6 °F 41.0 °F 90% 29.56 in 5.0 mi SW 15.0 mph 27.6 mph N/A Rain Heavy Rain
8:59 PM 43.3 °F 36.8 °F 40.8 °F 91% 29.56 in 10.0 mi SW 12.7 mph 21.9 mph N/A Rain Rain
9:17 PM 43.3 °F 35.8 °F 41.0 °F 91% 29.57 in 10.0 mi WSW 16.1 mph 21.9 mph N/A Rain Rain
9:35 PM 43.0 °F 36.0 °F 40.5 °F 91% 29.57 in 10.0 mi WSW 13.8 mph 25.3 mph N/A Rain Light Rain
9:36 PM 43.0 °F 36.8 °F 40.5 °F 91% 29.57 in 10.0 mi SW 11.5 mph 25.3 mph N/A Rain Light Rain
9:55 PM 42.8 °F 34.3 °F 40.3 °F 91% 29.57 in 10.0 mi SW 19.6 mph 26.5 mph N/A   Drizzle
9:56 PM 42.8 °F 35.1 °F 40.3 °F 91% 29.57 in 10.0 mi WSW 16.1 mph 26.5 mph N/A   Drizzle
10:15 PM 42.8 °F 35.4 °F 40.1 °F 90% 29.57 in 10.0 mi SW 15.0 mph 23.0 mph N/A   Light Drizzle
10:20 PM 42.8 °F 36.2 °F 40.1 °F 90% 29.57 in 10.0 mi SW 12.7 mph 21.9 mph N/A   Light Drizzle
10:38 PM 42.8 °F 35.1 °F 40.1 °F 90% 29.58 in 10.0 mi WSW 16.1 mph 23.0 mph N/A Rain Rain
10:56 PM 42.4 °F 35.0 °F 39.9 °F 91% 29.58 in 10.0 mi WSW 15.0 mph 23.0 mph N/A   Light Drizzle
11:15 PM 42.3 °F 34.8 °F 39.7 °F 91% 29.58 in 10.0 mi WSW 15.0 mph 24.2 mph N/A   Light Drizzle
11:35 PM 42.3 °F 35.1 °F 39.7 °F 91% 29.58 in 10.0 mi WSW 13.8 mph 25.3 mph N/A Rain Light Rain
11:36 PM 42.3 °F 35.9 °F 39.7 °F 91% 29.58 in 10.0 mi WSW 11.5 mph 25.3 mph N/A Rain Light Rain
11:58 PM 42.3 °F 36.3 °F 39.7 °F 91% 29.58 in 10.0 mi SW 10.4 mph 17.3 mph N/A   Light Drizzle